SL-14 DEB

基本信息
目录编号:
45324
目录名称:
SL-14 DEB
国际标识:
1991-056BN
轨道中心:
EARTH
物体状态:
在轨
发射日期:
1991-08-15 UTC
轨道信息
数据来源: 国际轨道数据
星历时间: 2026-09-10T02:08:35+0800
半长轴: 7558.802km
偏心率: 0.0025482
轨道倾角: 82.542°
近地点辐角: 208.595°
升交点赤经: 66.731°
平近点角: 151.378°
近地点: 1161.403km
远地点: 1199.927km
周期: 109.003分钟
每日圈数: 13.210624
详细信息
发射场:
PKMTR
轨道高度:
LEO
数据来源:
AOE Integration Group
参考系:
TEME
时间系统:
UTC
历元类型:
SGP4
2D轨道图
3D轨道图
轨道高度分析图
轨道倾角分析图
轨道综合分析图
查看轨道综合分析图